DMSP 5D-2 F13 DEB, 40527

Orbit data source: Space-Track

DMSP 5D-2 F13 DEB, 40527 is space debris in SSO originally from a launch on Fri, 24 Mar 1995 UTC launched from the Air Force Western Test Range (AFWTR). Debris objects in space refer to the collection of defunct objects orbiting the Earth. Examples of debris include non-operational satellites, rocket bodies, and fragments generated from explosions, collisions, or faulty payload assembly.

Loading next visibility...
Identifier
40527, 1995-015DP
Orbit
SSO
Country
Flag of USUS
Related business
Manufacturer
Unknown
Mission
Spacecraft
Bus & Motor
Unknown
Mass
Unknown
Launch date (UTC)
1995-03-24 (31 years ago)
Launch vehicle
Unknown
Launch site
Air Force Western Test Range (AFWTR)
Object type
Payload
Rocket body
Debris
Shape & HBR
Unknown shape, 0.1 m
Radar Cross Section
Small (<0.1 m²)

Expand to show TLE details & history
Last TLE update: 3 days ago

TLE from 3 days ago
0 DMSP 5D-2 F13 DEB
1 40527U 95015DP  25352.41587786  .00003571  00000-0  15347-2 0  9999
2 40527  98.9400 340.3158 0038932 187.8907 172.1664 14.24936373552875
Epoch: 2025-12-18T09:58Z
TLE epoch observation values (Epoch: 2025-12-18T09:58:51.847Z)
Latitude
0.00003°
Longitude
103.32806°
Altitude
839.347 km
Speed
7.419 km/s
True Right ascension
22h 41m 15s
True Declination
0° 00' 00"
Sunlit
Object was in daylight at epoch
Visualization orbit readout
Latitude
Unknown
Longitude
Unknown
Altitude
Unknown
Speed
Unknown
Apparent Right ascension
Unknown
Apparent Declination
Unknown
Sunlit
N/A
Visualization observer readout
Local Sidereal Time
23:45:58
Azimuth
Unknown
Elevation
Unknown
Doppler factor
Unknown
Orbital elements
Apogee altitude
833.838 km
Perigee altitude
777.901 km
Semi-major axis
7,184.007 km
Eccentricity
0.00389
Inclination
98.94°
RAAN
340.3158°
Arg. of periapsis
187.8907°
True anomaly
172.22691°
Mean anomaly
172.1664°
Eccentric anomaly
172.19669°
Mean motion
3.56445 °/min
Orbital period
101 mins
BSTAR
0.0015347
Loading maneuver chart data...
Computing Atmospheric mass density...

Documentation

Showing up to 5 results
|